Regional Weather Roundup
Issued by NWS

Home | Current Version | Previous Version | Text Only | Print | Product List | Glossary Off
Versions: 1 2 3 4 5 6 7 8 9 10 11 12 13 14 15 16 17 18 19 20 21 22 23 24 25 26 27 28 29 30 31 32 33 34 35 36 37 38 39 40 41 42 43 44 45 46 47 48 49 50

000
ASUS45 KPSR 231910
RWRAZ

ARIZONA HOURLY REGIONAL WEATHER ROUNDUP
NATIONAL WEATHER SERVICE PHOENIX AZ
1200 PM MST MON MAY 23 2016

NOTE: FAIR INDICATES FEW OR NO CLOUDS BELOW 12,000 FEET WITH NO
SIGNIFICANT WEATHER AND/OR OBSTRUCTIONS TO VISIBILITY.

AZZ001>003-036-232000-
NORTHWEST ARIZONA

CITY           SKY/WX    TMP DP  RH WIND       PRES   REMARKS
BULLHEAD CITY  SUNNY     84  28  13 SW16G22   29.80F
KINGMAN        SUNNY     75  23  14 SW21G26   29.88F
$$

AZZ004>008-015-016-018-232000-
NORTH CENTRAL ARIZONA

CITY           SKY/WX    TMP DP  RH WIND       PRES   REMARKS
GRAND CANYON   SUNNY     64  15  15 SW17G24   30.00F
WILLIAMS       SUNNY     61  14  16 SW15G24   30.08F
PRESCOTT       SUNNY     68  14  12 SW12G20   29.96F
FLAGSTAFF      SUNNY     59  18  20 S12G23    30.04S
PAYSON         SUNNY     70  19  14 SW10G16   30.01F
PAGE           SUNNY     72  16  12 E7        29.87F
$$

AZZ009>014-017-232000-
NORTHEAST ARIZONA

CITY           SKY/WX    TMP DP  RH WIND       PRES   REMARKS
WINSLOW        SUNNY     75  13   9 SW7G25    29.93F
SAINT JOHNS    SUNNY     75  25  15 SW20G29   29.94F
WINDOW ROCK    SUNNY     68  14  12 SW21G29   30.02S
SHOW LOW       SUNNY     64  25  22 S18G28    30.02F
$$

AZZ023-232000-
GREATER PHOENIX AREA

CITY           SKY/WX    TMP DP  RH WIND       PRES   REMARKS
PHOENIX        SUNNY     82  24  12 VRB3      29.83F
BUCKEYE        SUNNY     81  30  16 CALM      29.85F
GLENDALE       SUNNY     82  27  13 VRB6      29.85F
LUKE AFB       MOSUNNY   82  27  13 SW7       29.83F
DEER VALLEY    SUNNY     80  25  13 S5        29.84F
SCOTTSDALE     SUNNY     82  23  11 SE8       29.86F
MESA-FALCON    SUNNY    N/A N/A N/A S9        29.82F
MESA-GATEWAY   SUNNY     81  27  13 VRB6      29.85F
CHANDLER       SUNNY     81  23  12 VRB6      29.84F
$$

AZZ027-028-232000-
SOUTHWEST MARICOPA COUNTY AND PINAL COUNTY

CITY           SKY/WX    TMP DP  RH WIND       PRES   REMARKS
CASA GRANDE    SUNNY     81  28  15 CALM      29.86F
GILA BEND      SUNNY     83  23  11 SW3       29.81F
$$

AZZ503-504-507>509-232000-
SOUTHEAST ARIZONA

CITY           SKY/WX    TMP DP  RH WIND       PRES   REMARKS
TUCSON         SUNNY     82  31  15 CALM      29.89F
DAVIS-MONTHAN  MOSUNNY   83  32  16 VRB5      29.87F
RYAN FIELD     SUNNY     82  32  16 CALM      29.87F
NOGALES        SUNNY     83  23  11 SW14G25   29.94F
SIERRA VISTA   SUNNY     81  18   9 SW13G20   29.98S
DOUGLAS        SUNNY     85  14   7 SW17G29   29.94F
SAFFORD        SUNNY     83  30  14 MISG      29.87F
$$

AZZ020-021-025-026-031-232000-
SOUTHWEST ARIZONA

CITY           SKY/WX    TMP DP  RH WIND       PRES   REMARKS
YUMA           SUNNY     81  36  19 NW5       29.82F
$$

CAZ031-033-041-043-047-048-061-232000-
SOUTHERN CALIFORNIA

CITY           SKY/WX    TMP DP  RH WIND       PRES   REMARKS
DOWNTOWN L.A.  PTSUNNY   72  50  45 VRB3      29.93S
L.A. AIRPORT   PTSUNNY   69  49  48 SE12G21   29.94S
SAN DIEGO      MOSUNNY   67  48  50 SW14G20   30.00R
BURBANK        PTSUNNY   67  47  48 SE8G16    29.93S
ONTARIO        PTSUNNY   67  44  43 CALM      29.95S
RIVERSIDE      PTSUNNY   70  43  37 CALM      29.94S
PALM SPRINGS   SUNNY     80  42  25 NW14G22   29.83F
EL CENTRO NAS  SUNNY     84  20   9 W14G20    29.82F
IMPERIAL       SUNNY     82  30  15 VRB5      29.81F
BLYTHE         SUNNY     82  39  21 S8G21     29.80F
NEEDLES        SUNNY     85  28  12 SW12G25   29.79F
$$

NVZ020-UTZ003-232000-
SOUTHERN NEVADA-UTAH

CITY           SKY/WX    TMP DP  RH WIND       PRES   REMARKS
LAS VEGAS      MOSUNNY   78  27  15 S12       29.76F
SALT LAKE CITY PTSUNNY   63  32  31 N5        29.90F
$$

NMZ009-TXZ055-232000-
NEW MEXICO-WEST TEXAS

CITY           SKY/WX    TMP DP  RH WIND       PRES   REMARKS
ALBUQUERQUE    MOSUNNY   75  25  15 SW12      29.96F
EL PASO        MOSUNNY   86  22   9 W17G24    29.92F
$$


........................KEY........................
SKY/WX - SKY CONDITION/WEATHER
TMP    - TEMPERATURE IN FAHRENHEIT
DP     - DEW POINT IN FAHRENHEIT
RH     - RELATIVE HUMIDITY IN PERCENT
WIND   - DIRECTION AND SPEED IN MILES PER HOUR (MPH)
VRB    - VARIABLE WIND DIRECTION
PRES   - MEAN SEA LEVEL PRESSURE IN INCHES OF MERCURY
         F - FALLING PRESSURE   R - RISING PRESSURE
         S - STEADY PRESSURE
VSB    - VISIBILITY IN MILES
HX     - HEAT INDEX IN FAHRENHEIT
WCI    - WIND CHILL INDEX IN FAHRENHEIT
TC     - TEMPERATURE IN CELSIUS WHICH IS ALSO KNOWN AS
         TEMPERATURE IN CENTIGRADE
AFB    - AIR FORCE BASE
         LUKE AFB IS LUKE AIR FORCE BASE
         DAVIS-MONTHAN IS DAVIS-MONTHAN AIR FORCE BASE
NAS    - NAVAL AIR STATION
         EL CENTRO NAS IS EL CENTRO NAVAL AIR STATION
N/A    - NOT AVAILABLE




USA.gov is the U.S. government's official web portal to all federal, state and local government web resources and services.